GW5434 Weather Reports


time (UTC)temp
F
wind
direction
speed
knots
gust
knots
rain 1hr
in
rain 24hr
in
rain mn
in
humidity
%
barometer
mb
20260901143007 87 134 0.9 2.6 0.00 0.00 0.00 77 1019.4
20260901141512 85 60 0.9 2.6 0.00 0.00 0.00 79 1019.6
20260901140009 84 43 0.9 3.5 0.00 0.00 0.00 81 1019.5
20260901134504 83 111 0.9 3.5 0.00 0.00 0.00 81 1019.3
20260901133003 83 98 0.0 0.9 0.00 0.00 0.00 82 1019.4
20260901131506 81 237 0.0 0.0 0.00 0.00 0.00 85 1019.4
20260901130003 78 3 0.0 0.0 0.00 0.00 0.00 90 1019.4
20260901124508 74 153 0.0 0.0 0.00 0.00 0.00 94 1019.2
20260901123005 73 153 0.0 0.0 0.00 0.00 0.00 95 1019.1
20260901121506 72 153 0.0 0.0 0.00 0.00 0.00 95 1018.9
20260901120004 72 153 0.0 0.0 0.00 0.00 0.00 95 1018.7
20260901114505 71 153 0.0 0.0 0.00 0.00 0.00 94 1018.4
20260901113004 71 153 0.0 0.0 0.00 0.00 0.00 94 1018.2
20260901111506 71 153 0.0 0.0 0.00 0.00 0.00 94 1018.1
20260901110007 72 153 0.0 0.0 0.00 0.00 0.00 94 1018.0
20260901104504 71 153 0.0 0.0 0.00 0.00 0.00 94 1017.8
20260901103003 71 153 0.0 0.0 0.00 0.00 0.00 94 1017.8
20260901101504 71 153 0.0 0.0 0.00 0.00 0.00 94 1017.7
20260901100008 71 153 0.0 0.0 0.00 0.00 0.00 94 1017.7
20260901094514 71 153 0.0 0.0 0.00 0.00 0.00 93 1017.7
20260901093009 72 153 0.0 0.0 0.00 0.00 0.00 94 1017.7
20260901091506 72 153 0.0 0.0 0.00 0.00 0.00 93 1017.6
20260901090008 72 153 0.0 0.0 0.00 0.00 0.00 93 1017.4
20260901084509 72 153 0.0 0.0 0.00 0.00 0.00 93 1017.3
20260901083008 72 153 0.0 0.0 0.00 0.00 0.00 93 1017.5
20260901081507 73 153 0.0 0.0 0.00 0.00 0.00 93 1017.5
20260901080016 73 153 0.0 0.0 0.00 0.00 0.00 93 1017.6
20260901074510 73 153 0.0 0.0 0.00 0.00 0.00 92 1017.5
20260901073009 73 153 0.0 0.0 0.00 0.00 0.00 92 1017.3
20260901070012 73 153 0.0 0.0 0.00 0.00 0.00 92 1017.6
20260901064510 73 153 0.0 0.0 0.00 0.00 0.00 92 1017.7
20260901063024 74 153 0.0 0.0 0.00 0.00 0.00 92 1017.9
20260901061513 74 158 0.0 0.0 0.00 0.00 0.00 92 1017.8
20260901060013 74 158 0.0 0.0 0.00 0.00 0.00 92 1017.7
20260901054512 74 113 0.0 0.0 0.00 0.00 0.00 91 1017.7
20260901053007 75 113 0.0 0.0 0.00 0.00 0.00 90 1017.6
20260901051514 75 113 0.0 0.0 0.00 0.00 0.00 90 1017.6
20260901050017 75 113 0.0 0.0 0.00 0.00 0.00 89 1017.6
20260901044512 75 113 0.0 0.0 0.00 0.00 0.00 89 1017.7
20260901043015 76 113 0.0 0.0 0.00 0.00 0.00 89 1017.5
20260901041506 76 113 0.0 0.0 0.00 0.00 0.00 88 1017.6
20260901040014 76 113 0.0 0.0 0.00 0.00 0.00 88 1017.7
20260901034533 77 134 0.0 0.0 0.00 0.00 0.00 87 1017.7
20260901033023 77 134 0.0 0.0 0.00 0.00 0.00 87 1017.7
20260901031529 78 134 0.0 0.0 0.00 0.00 0.00 86 1017.7
20260901030010 78 134 0.0 0.0 0.00 0.00 0.00 85 1017.8
20260901024519 78 134 0.0 0.0 0.00 0.00 0.00 84 1017.8
20260901023018 79 134 0.0 0.0 0.00 0.00 0.00 83 1017.7
20260901021520 80 101 0.0 0.0 0.00 0.00 0.00 82 1017.7
20260901020020 81 111 0.0 0.0 0.00 0.00 0.00 80 1017.7
20260901014514 81 131 0.0 0.9 0.00 0.00 0.00 79 1017.5
20260901013020 82 114 0.0 1.7 0.00 0.00 0.00 77 1017.3
20260901011518 83 155 0.9 3.5 0.00 0.00 0.00 75 1017.1
20260901010036 84 200 0.0 4.3 0.00 0.00 0.00 74 1017.0
20260901004525 85 229 0.9 3.5 0.00 0.00 0.00 73 1016.9
20260901003017 85 97 1.7 8.7 0.00 0.00 0.00 73 1016.8
20260901001522 85 110 0.0 0.0 0.00 0.00 0.00 77 1016.4
20260901000040 86 109 0.0 0.0 0.00 0.00 0.00 73 1016.0
20260831193039 94 86 1.7 9.6 0.00 0.00 0.00 56 1017.6
20260831181541 91 105 0.9 3.5 0.00 0.00 0.00 64 1018.2
20260831180036 91 162 2.6 5.2 0.00 0.00 0.00 62 1018.2
20260831174508 91 34 0.9 3.5 0.00 0.00 0.00 62 1018.3
20260831173018 93 33 2.6 5.2 0.00 0.00 0.00 59 1018.5
20260831171523 93 145 0.0 7.0 0.00 0.00 0.00 61 1018.8
20260831170033 91 147 2.6 6.1 0.00 0.00 0.00 63 1019.1
20260831163012 90 359 2.6 7.0 0.00 0.00 0.00 65 1019.4
20260831161529 89 60 1.7 6.1 0.00 0.00 0.00 69 1019.5
20260831160023 88 53 0.9 5.2 0.00 0.00 0.00 70 1019.5
20260831154608 88 174 2.6 5.2 0.00 0.00 0.00 72 1019.6
20260831153031 87 79 2.6 5.2 0.00 0.00 0.00 71 1019.8
20260831151513 86 83 0.0 3.5 0.00 0.00 0.00 74 1019.8
20260831150019 87 186 2.6 7.0 0.00 0.00 0.00 74 1019.7
20260831144526 86 123 2.6 8.7 0.00 0.00 0.00 75 1019.6